Wind_Speed
37 34 31 32 31 31 32 31 30 30 29 28 28 27 26 26 28 29 29 26 25 28 30 29 27 26 27 27 26 25 26 27 27 26 26 26 25 24 23 22 21 20 18 17 16 15 14 14 13 11 11 11 10 10 9 8 7 6 6 6 5 5 5
36 35 33 33 32 31 32 31 29 29 30 28 28 26 24 25 27 29 27 24 24 26 28 28 27 26 26 26 26 26 26 26 26 27 27 26 25 24 23 23 22 20 19 18 17 17 16 16 15 13 12 12 11 11 10 9 8 7 6 6 6 6 6
35 35 34 34 33 32 31 30 29 29 29 28 28 27 25 25 26 27 25 23 23 25 27 28 27 25 25 26 27 26 26 26 26 26 26 27 26 25 24 23 22 21 20 19 19 19 18 17 17 16 14 13 13 12 11 10 9 7 6 6 7 7 8
34 33 33 31 29 30 30 30 30 30 30 29 28 28 26 23 24 25 24 22 23 25 27 28 27 26 26 26 27 26 27 27 27 26 26 26 26 25 25 24 23 22 21 20 20 19 19 19 18 17 16 15 14 13 12 10 10 8 7 6 7 8 9
29 31 32 31 28 29 29 29 30 29 29 29 27 27 25 22 24 27 25 22 22 24 25 27 27 27 26 26 27 26 26 27 27 26 26 25 25 26 26 25 24 23 23 22 21 20 20 20 18 18 18 17 16 15 13 12 11 9 8 7 7 8 9
30 32 34 33 31 29 27 28 29 29 29 28 27 27 26 24 27 31 29 24 22 23 25 27 28 27 27 27 27 26 26 26 27 27 26 26 26 26 26 25 24 24 24 24 23 22 22 21 19 18 19 18 18 17 15 14 13 11 10 9 9 9 9
30 33 34 33 32 31 28 28 30 29 29 28 27 27 28 28 28 31 33 27 23 24 26 27 28 28 27 27 27 27 26 25 26 26 27 27 27 27 26 25 25 24 24 25 25 24 24 23 20 19 20 20 19 18 17 15 14 13 12 10 9 9 9
27 31 33 33 33 32 32 32 31 30 30 29 29 29 30 30 28 30 34 31 25 25 26 27 27 27 27 27 27 27 26 25 25 25 26 27 28 28 26 26 26 25 25 25 26 25 25 24 22 19 20 22 21 20 18 17 16 15 13 12 10 10 9
27 28 31 32 33 34 35 34 31 29 31 32 32 30 30 31 29 27 31 32 29 26 26 26 26 26 26 26 27 27 26 26 26 25 26 26 27 28 27 26 26 26 25 26 26 26 25 25 23 20 20 22 22 22 20 18 18 17 16 13 12 11 10
30 30 30 29 32 35 33 30 28 28 31 34 34 31 29 29 28 25 27 31 31 28 25 25 25 25 25 25 26 27 27 27 27 27 26 26 26 27 27 26 26 26 26 26 26 27 26 24 24 23 22 22 22 23 22 20 19 19 17 15 14 13 12
30 32 31 29 31 36 34 30 30 30 30 33 34 31 28 27 27 26 26 28 31 30 27 25 25 25 24 24 25 27 27 27 28 28 27 27 26 26 25 26 26 26 27 26 27 27 26 24 24 24 24 23 22 22 23 21 20 19 19 17 15 14 14
27 30 31 32 33 35 35 33 33 31 27 31 34 29 26 25 27 28 26 25 28 30 29 27 26 25 24 24 25 26 26 27 28 28 28 28 27 26 25 25 26 26 27 26 26 27 27 25 24 23 23 22 22 21 22 22 21 20 19 19 17 16 15
26 26 26 34 35 33 34 34 34 31 26 29 33 29 24 25 27 29 28 26 28 30 30 28 27 25 24 24 25 25 25 26 27 27 27 28 28 27 26 26 26 26 26 26 26 26 26 25 24 23 22 21 21 21 21 21 21 21 20 19 18 17 16
24 21 19 29 34 32 34 34 33 30 25 25 31 30 25 24 24 26 26 27 29 30 29 28 27 26 24 24 25 25 24 24 24 25 26 27 27 27 27 26 26 26 25 25 26 26 26 25 23 23 23 21 20 21 22 21 22 22 21 20 19 18 16
23 20 19 28 34 33 33 32 31 30 25 23 27 31 30 26 23 21 23 26 30 32 30 28 27 27 24 24 24 24 23 23 23 24 25 26 27 27 27 27 26 26 26 26 26 27 27 26 23 22 23 22 20 21 23 23 22 22 21 20 19 19 17
19 23 26 32 35 35 36 33 28 26 26 25 26 28 31 30 24 20 21 25 30 33 32 29 28 27 25 23 23 23 24 24 23 24 25 25 26 26 27 27 27 27 27 26 26 27 27 27 25 22 22 23 22 21 23 24 23 21 21 19 19 19 18
15 19 25 29 29 30 34 36 33 30 31 33 31 30 31 31 27 22 21 24 30 34 34 30 27 27 25 23 23 23 24 24 24 24 25 24 24 25 26 27 26 27 27 27 27 27 28 28 26 23 21 22 23 22 23 24 22 21 20 20 19 19 19
13 14 19 22 22 24 27 30 34 37 37 39 38 36 35 32 29 25 23 24 29 34 37 33 28 27 26 24 23 24 24 24 24 24 25 24 24 24 25 26 27 27 28 28 27 27 28 28 28 26 22 22 24 24 23 23 23 21 20 20 20 19 19
13 14 17 19 19 21 23 23 27 32 35 35 35 35 35 31 28 28 26 25 27 32 38 37 31 29 28 26 25 24 24 24 24 23 24 24 24 24 25 26 27 27 28 28 28 27 28 28 29 28 25 23 23 23 23 23 23 22 21 20 19 19 19
13 13 14 16 15 16 19 20 21 25 30 32 29 29 30 28 27 29 29 27 27 30 35 38 37 32 29 28 26 25 25 25 24 23 23 23 24 25 25 26 27 27 27 28 29 29 28 28 29 29 28 26 25 24 24 23 22 21 20 19 18 18 19
12 11 11 12 11 11 14 17 18 21 27 31 30 28 28 27 28 31 31 29 29 31 33 37 40 37 32 30 29 27 27 26 25 25 23 23 24 25 26 26 26 27 28 29 30 30 29 28 28 29 30 29 28 26 25 24 24 23 21 19 17 17 19
16 14 12 12 12 11 12 14 16 19 23 28 31 29 27 27 29 32 32 28 29 31 31 33 40 41 36 33 31 29 28 27 27 26 26 25 25 25 26 26 26 26 27 29 30 31 30 29 28 29 30 30 30 29 27 26 25 24 24 21 18 18 19
21 19 17 15 14 14 13 14 15 16 17 21 27 29 26 25 27 30 31 30 31 33 33 33 37 42 40 35 33 31 30 29 28 28 28 27 26 25 25 26 27 27 27 28 30 32 33 31 29 29 30 30 31 30 29 28 26 25 25 23 20 19 21
26 24 21 19 17 16 15 15 16 17 15 16 22 28 28 26 26 29 32 32 32 34 36 36 37 40 40 37 34 32 31 31 31 30 30 29 28 26 25 26 28 28 28 28 29 32 33 32 30 30 30 31 31 30 29 29 28 27 26 24 22 21 21
30 28 26 23 21 19 18 17 17 18 18 16 18 24 30 29 26 27 31 33 31 31 35 37 37 39 39 37 36 34 33 33 33 32 32 32 29 27 26 26 27 29 29 28 28 30 32 33 32 32 31 31 31 30 29 29 29 28 27 26 24 23 23
33 30 29 28 25 23 20 20 19 19 19 18 16 19 29 34 31 29 33 33 30 30 33 35 36 36 37 37 37 37 36 35 35 34 34 34 32 28 26 26 27 29 30 29 28 29 32 33 34 33 31 31 30 30 29 28 28 29 27 26 25 24 24
36 34 32 31 29 26 23 21 22 21 20 20 18 18 25 33 34 33 33 33 30 29 29 30 31 33 35 38 38 38 37 36 36 36 36 36 34 30 27 27 28 29 31 29 28 28 30 33 34 33 32 32 31 31 30 29 29 29 29 27 26 25 25
40 38 35 32 30 29 25 23 22 22 21 21 20 20 24 31 35 34 33 34 33 29 27 27 28 30 33 36 38 39 38 37 37 38 39 39 37 32 29 28 28 29 30 30 28 28 29 31 33 34 33 33 32 32 32 31 31 31 30 29 28 26 27
40 39 36 33 31 29 27 24 24 23 22 21 22 22 26 31 35 35 35 36 34 30 29 30 30 31 32 34 37 38 38 38 38 39 41 41 39 34 31 29 27 27 29 29 29 28 29 30 31 32 33 33 33 33 32 32 31 31 30 30 29 28 27
37 37 36 34 32 30 28 26 25 24 23 22 22 24 28 34 37 37 37 37 35 33 35 35 33 32 33 34 35 37 38 38 40 41 42 42 40 36 33 29 27 26 26 27 28 29 29 29 29 30 31 32 32 32 31 31 31 30 28 29 29 29 28
34 34 35 34 32 31 29 27 26 25 23 23 23 26 30 35 39 41 40 38 37 38 40 38 35 34 35 35 35 36 38 39 41 42 43 43 40 37 35 31 28 27 26 26 27 28 28 28 28 29 30 31 31 31 31 31 31 30 27 27 29 29 29
33 32 32 31 31 31 29 26 25 25 24 24 25 27 30 34 39 42 42 41 42 42 42 41 38 36 35 35 35 36 39 41 42 42 43 43 40 38 36 34 31 28 27 26 27 28 29 29 29 29 29 29 30 30 30 30 30 30 28 28 28 28 28
31 30 28 29 30 30 27 25 25 25 25 25 25 26 29 34 38 41 43 44 45 45 45 44 42 39 38 37 37 38 40 42 43 43 43 43 41 38 37 36 33 31 29 27 27 28 28 29 29 29 29 29 30 29 29 29 29 29 29 27 25 25 26
28 26 25 25 27 27 25 23 24 25 25 25 25 26 29 33 35 38 41 45 46 47 48 47 45 42 41 39 39 40 41 42 42 42 43 42 40 38 37 36 34 32 30 28 27 26 26 26 26 25 24 24 25 26 27 26 26 27 26 24 22 22 22
23 23 22 21 22 25 24 22 23 26 26 25 25 28 30 33 35 36 39 43 46 48 49 49 47 45 43 42 42 42 42 41 41 42 42 42 40 39 38 36 34 32 30 28 27 26 26 26 25 23 21 20 21 21 22 22 22 22 23 22 22 22 22
20 21 20 20 21 24 26 25 24 25 26 26 27 31 33 34 36 37 40 42 44 46 48 49 48 47 46 46 46 45 42 41 41 42 42 42 41 39 37 35 33 32 31 30 28 27 27 27 27 27 26 26 25 25 24 24 23 24 25 27 26 25 25
21 22 22 23 24 24 25 28 28 27 27 27 29 32 35 36 38 40 42 42 42 44 47 49 48 48 49 48 47 45 42 40 41 43 42 41 40 39 37 35 34 34 33 31 29 28 28 28 28 28 29 29 29 29 28 27 27 28 29 29 29 28 28
25 26 26 28 27 23 21 25 29 29 28 28 31 34 37 39 40 41 41 41 40 42 46 48 48 48 48 47 45 45 43 42 43 43 42 42 40 38 36 36 36 36 33 31 29 29 28 28 28 29 30 30 30 29 28 27 27 28 28 28 29 29 28
Wind_Direction
219 221 218 216 214 213 214 212 209 208 209 210 209 206 208 216 222 224 225 222 218 218 219 220 219 216 217 218 217 214 214 217 218 218 218 219 219 219 218 217 219 219 216 215 217 218 218 219 218 213 208 209 212 212 214 214 213 215 216 216 213 209 210
218 222 220 216 215 218 218 214 212 211 210 209 206 205 207 215 223 225 223 220 216 217 220 221 220 217 216 218 219 217 215 217 219 219 219 219 219 220 219 219 220 222 222 220 222 223 223 223 223 221 216 212 213 216 219 219 219 221 224 227 226 222 221
219 223 222 220 221 222 218 213 214 213 210 209 205 204 206 211 221 224 222 218 213 213 217 221 221 219 216 217 218 218 216 216 219 220 221 220 221 221 221 220 220 222 224 224 225 226 226 226 225 225 223 219 217 217 220 223 225 227 228 230 233 232 233
221 221 223 227 226 221 216 213 215 214 211 210 207 206 206 208 217 222 222 220 213 211 214 217 219 218 217 217 218 218 217 216 217 220 222 223 222 223 223 221 220 222 225 227 229 229 229 228 227 226 226 224 222 221 221 224 228 231 232 232 235 237 239
217 212 215 225 229 224 217 213 215 216 212 211 208 206 206 207 216 222 223 222 215 212 213 216 219 218 217 218 219 219 217 217 218 218 220 223 223 224 225 223 221 221 224 228 231 233 233 230 226 227 228 227 226 225 223 224 227 229 231 234 238 240 241
213 210 211 220 226 226 221 217 217 216 214 214 212 208 207 207 214 220 222 221 215 212 213 216 219 218 216 217 218 219 218 217 218 218 218 221 223 224 225 225 224 222 224 228 231 235 237 235 228 224 228 230 229 228 225 225 228 229 230 234 240 244 244
213 211 212 217 220 222 224 220 215 213 215 217 215 211 209 208 212 218 222 220 213 212 213 214 217 217 216 216 217 219 218 217 218 219 218 220 223 225 225 226 227 224 224 228 231 234 237 240 234 225 226 230 230 229 227 226 229 231 231 233 238 244 247
210 209 212 218 219 221 225 220 214 214 214 215 217 216 212 211 212 214 219 220 213 212 215 216 218 218 216 215 216 217 217 217 218 219 219 220 223 226 226 226 227 227 226 227 232 234 236 240 240 231 227 230 231 231 229 227 229 233 233 232 236 243 250
209 208 212 220 223 225 227 221 216 218 216 214 218 220 214 213 213 210 215 219 215 212 215 218 221 222 220 217 216 217 217 217 217 219 220 221 223 226 227 226 227 228 228 228 232 236 237 239 240 235 231 232 232 232 231 228 228 233 235 234 238 247 253
211 207 208 214 221 226 229 224 219 222 220 217 220 223 219 216 212 207 211 218 218 214 214 219 222 223 224 220 217 217 217 216 217 217 219 220 222 224 227 228 227 227 228 229 232 236 237 238 238 236 234 233 232 231 232 231 228 232 237 237 241 250 256
215 213 211 207 212 223 231 229 224 223 221 219 221 224 223 219 212 208 209 215 218 214 212 216 221 223 225 223 220 220 219 217 217 217 218 220 221 222 224 227 227 227 228 229 231 235 237 236 236 236 235 235 234 232 233 234 231 230 236 240 243 249 256
213 218 215 205 206 221 230 229 228 228 225 220 219 221 221 218 213 211 211 213 214 212 211 214 219 225 227 223 221 222 221 219 218 218 218 219 222 222 222 225 226 227 228 229 231 236 238 237 235 236 237 236 236 234 232 234 234 231 233 238 242 247 251
205 215 215 203 201 213 225 230 232 233 230 219 215 216 217 215 214 216 217 215 213 212 213 215 219 225 228 225 223 223 223 222 221 220 219 219 222 223 223 224 226 226 227 229 231 235 239 240 236 236 239 238 236 235 232 232 234 233 231 235 241 245 246
190 202 209 200 198 206 218 229 233 232 229 219 214 216 216 215 216 218 220 218 214 213 215 217 220 225 229 227 225 224 224 224 223 222 222 221 222 224 224 224 226 226 226 226 228 233 238 242 239 235 237 238 236 235 234 232 232 233 232 233 239 243 242
174 177 176 183 191 197 206 220 230 230 226 222 219 219 219 221 221 221 222 221 217 216 217 219 221 225 230 230 228 227 225 224 223 223 223 223 222 224 225 225 226 228 227 224 225 229 236 241 241 235 234 237 236 233 234 233 231 232 233 232 235 240 241
165 160 158 172 183 186 192 200 213 224 227 228 230 228 227 228 227 224 223 221 219 218 217 220 222 225 231 233 231 229 227 226 225 224 224 225 224 225 226 227 227 228 229 227 223 226 231 237 241 237 233 235 234 230 231 233 232 231 233 232 231 235 240
174 159 159 170 175 177 184 189 196 208 218 221 225 229 228 228 231 234 230 221 220 219 218 220 224 227 232 233 231 231 230 229 228 226 226 227 226 226 227 228 229 228 230 230 225 224 227 233 239 240 235 233 234 231 230 233 234 231 230 230 229 231 237
179 164 165 172 174 178 184 190 194 199 205 208 209 210 212 214 222 235 237 225 220 220 218 220 224 228 231 232 231 231 231 231 231 229 229 229 228 228 227 229 230 229 230 232 230 226 226 229 235 239 237 233 233 235 233 233 234 232 229 229 230 231 233
169 162 164 170 179 187 190 196 199 197 199 202 203 206 208 209 214 226 233 226 220 221 220 219 221 226 230 231 231 231 231 232 232 230 230 230 230 229 227 229 231 231 231 233 233 231 227 228 232 237 239 237 234 235 237 236 235 234 231 230 232 233 234
173 167 168 169 177 185 189 199 206 205 207 208 206 207 210 211 212 221 229 225 218 221 222 220 220 223 227 229 230 230 230 231 232 231 230 230 229 229 228 230 233 234 232 232 234 234 230 228 229 234 238 240 238 236 237 239 239 239 237 234 233 234 236
203 195 195 191 193 192 191 198 205 210 217 219 212 205 207 212 211 215 223 222 216 219 222 220 220 221 223 226 229 229 230 230 232 232 230 228 228 229 230 231 233 235 234 232 232 235 234 230 229 232 235 239 242 241 238 238 240 242 242 240 235 234 238
229 225 229 224 218 214 211 213 212 211 216 219 216 209 209 215 213 211 215 218 216 217 218 218 220 222 222 223 226 229 229 230 232 233 232 230 229 229 230 231 232 234 236 235 233 234 235 233 230 231 234 237 241 242 241 239 239 241 243 243 238 236 238
243 240 246 247 239 231 228 230 228 223 219 220 221 217 210 213 217 215 214 216 216 217 216 215 220 224 224 223 225 228 229 229 231 234 234 233 231 230 232 232 233 233 235 237 235 234 235 234 231 231 232 234 237 240 242 242 241 241 244 245 242 238 238
251 248 250 254 252 244 236 237 238 234 227 220 221 220 214 210 214 215 216 218 218 216 216 216 219 223 225 225 226 228 230 230 231 233 236 236 234 232 233 234 234 234 235 237 238 237 237 235 234 233 233 234 236 238 241 244 244 244 245 247 246 242 239
257 255 255 258 260 252 242 241 241 237 231 223 218 218 214 209 208 212 219 223 219 214 217 220 222 225 227 227 229 229 230 231 232 233 236 238 236 234 234 235 235 234 235 237 239 239 239 237 236 235 234 235 237 238 239 242 245 245 245 245 245 244 240
259 259 259 261 265 260 250 243 239 235 233 231 227 221 213 204 199 206 219 223 218 213 218 222 224 227 229 230 230 230 229 230 232 234 236 237 236 234 234 235 236 234 234 236 238 239 239 239 238 237 236 236 237 238 237 238 242 244 245 244 243 243 241
263 265 265 265 265 261 255 248 240 235 233 232 232 231 219 207 201 204 213 220 219 216 218 223 225 227 230 232 232 231 231 230 231 233 234 235 234 233 232 233 235 235 233 234 237 238 238 240 239 238 237 237 238 240 239 237 238 241 243 242 241 240 240
265 267 267 266 263 259 254 249 242 237 234 232 230 230 225 215 209 208 212 217 219 218 219 223 224 225 229 232 233 233 232 231 231 231 231 232 232 230 229 231 233 233 232 232 235 237 237 239 241 239 238 238 238 240 241 240 238 239 240 241 240 238 238
261 263 264 263 262 259 255 249 243 238 236 234 229 228 227 221 214 212 214 218 220 218 220 224 224 224 227 230 232 232 231 231 231 230 229 230 230 228 227 229 231 231 231 231 233 235 236 237 240 241 240 240 239 241 243 243 242 241 241 242 242 240 238
255 257 259 260 260 260 258 252 244 240 238 237 231 226 225 224 218 213 216 221 222 221 223 225 224 223 224 227 230 231 230 230 230 230 228 228 228 226 225 228 230 230 228 227 229 232 234 236 238 240 241 241 241 242 243 245 245 243 242 242 243 243 242
251 252 254 258 259 258 257 253 246 242 239 238 235 227 224 224 222 217 216 220 223 223 224 225 225 223 222 224 227 228 228 229 230 230 229 228 226 225 225 228 231 230 228 227 228 230 233 235 237 239 241 243 244 244 244 246 247 246 243 242 242 243 243
247 249 249 251 252 253 252 250 246 244 241 238 237 232 225 224 224 221 218 219 222 224 224 225 225 223 221 221 222 224 225 229 230 230 229 227 226 225 225 228 232 233 232 231 231 233 235 237 239 241 243 245 247 248 247 247 247 247 246 245 244 245 245
243 246 246 245 246 247 247 245 243 243 241 240 240 234 227 223 223 222 220 220 221 223 225 225 224 222 220 219 219 220 223 227 230 231 229 227 225 223 224 227 230 232 233 232 232 233 236 238 241 243 244 245 247 248 248 247 247 247 248 248 248 248 247
242 244 246 247 247 246 243 241 240 239 239 239 237 232 227 224 221 219 219 220 222 224 225 225 224 222 220 219 217 218 223 226 228 230 229 226 223 223 223 226 229 231 232 232 232 234 237 239 242 245 245 245 245 246 247 246 246 249 251 252 252 252 251
238 240 243 245 251 254 249 240 235 235 238 237 230 224 225 223 219 217 218 220 222 225 226 226 224 221 219 217 216 217 221 224 226 228 227 224 222 222 223 225 228 230 230 231 232 234 236 239 241 242 243 242 241 242 244 247 249 253 257 258 256 254 252
233 235 238 242 248 251 248 244 238 233 233 234 226 219 221 223 219 216 217 218 220 224 226 226 225 221 217 215 215 217 219 222 224 225 224 221 220 221 222 224 226 228 229 231 234 235 236 238 240 241 242 243 244 245 247 250 253 255 257 257 255 252 251
231 230 233 238 239 236 236 242 243 236 230 228 224 218 218 220 218 216 216 216 216 220 223 223 222 220 217 214 214 216 217 220 222 223 221 218 218 219 221 222 225 227 231 235 238 239 239 240 242 242 243 244 246 247 248 249 250 251 251 251 251 250 249
234 231 230 233 235 233 229 230 231 232 229 224 220 218 218 220 221 220 217 216 217 220 223 222 219 218 217 214 212 214 216 219 221 221 218 216 216 218 220 222 225 229 233 237 240 240 239 240 241 242 243 243 244 246 246 245 244 245 245 246 247 248 248
Height
3134 3138 3142 3144 3147 3149 3151 3153 3155 3156 3158 3161 3163 3164 3166 3168 3170 3172 3174 3177 3180 3183 3185 3186 3188 3191 3193 3195 3197 3199 3201 3202 3204 3206 3207 3209 3211 3213 3215 3217 3219 3221 3223 3224 3226 3227 3228 3230 3231 3232 3234 3235 3236 3237 3238 3238 3239 3240 3241 3242 3242 3243 3244
3132 3135 3139 3141 3144 3147 3149 3151 3153 3155 3156 3159 3161 3163 3164 3166 3168 3169 3172 3175 3178 3182 3184 3185 3187 3189 3191 3193 3195 3197 3199 3201 3202 3204 3206 3208 3209 3212 3214 3216 3218 3220 3221 3223 3225 3226 3227 3228 3230 3231 3232 3234 3235 3236 3237 3238 3239 3240 3240 3241 3242 3243 3243
3129 3131 3135 3138 3141 3144 3146 3149 3151 3153 3155 3156 3158 3159 3160 3163 3165 3167 3170 3173 3177 3180 3182 3183 3185 3187 3189 3192 3193 3195 3197 3199 3200 3202 3204 3206 3208 3210 3212 3214 3216 3218 3220 3221 3223 3224 3226 3227 3229 3230 3231 3233 3234 3235 3236 3237 3238 3239 3240 3241 3241 3242 3243
3126 3129 3130 3134 3138 3141 3143 3146 3148 3151 3153 3154 3156 3157 3158 3161 3164 3166 3168 3172 3175 3177 3179 3181 3183 3185 3188 3190 3191 3193 3195 3197 3199 3201 3203 3205 3207 3209 3210 3212 3214 3216 3218 3219 3221 3223 3224 3226 3227 3229 3230 3231 3233 3234 3235 3236 3237 3238 3239 3240 3241 3241 3242
3123 3126 3127 3130 3134 3137 3140 3144 3146 3148 3150 3151 3154 3156 3158 3160 3163 3165 3167 3170 3173 3176 3178 3180 3182 3183 3186 3188 3189 3191 3193 3195 3197 3199 3201 3203 3205 3206 3208 3210 3212 3214 3216 3218 3219 3221 3222 3224 3226 3227 3229 3230 3231 3233 3234 3235 3236 3237 3238 3239 3240 3241 3241
3122 3124 3124 3127 3130 3133 3137 3140 3142 3145 3147 3149 3152 3155 3157 3159 3161 3163 3166 3168 3172 3174 3176 3178 3180 3181 3183 3185 3187 3189 3191 3193 3195 3197 3199 3201 3202 3204 3206 3208 3210 3212 3214 3216 3217 3219 3220 3222 3224 3226 3227 3228 3230 3231 3232 3234 3235 3236 3237 3238 3239 3240 3240
3123 3122 3122 3125 3128 3131 3135 3138 3140 3142 3145 3147 3150 3152 3155 3157 3160 3162 3164 3166 3170 3172 3174 3175 3177 3179 3181 3183 3185 3187 3189 3191 3193 3195 3197 3199 3200 3202 3204 3206 3208 3210 3212 3214 3215 3217 3218 3219 3221 3224 3225 3227 3228 3229 3231 3232 3234 3235 3236 3237 3238 3239 3239
3122 3122 3121 3123 3126 3129 3132 3134 3137 3140 3143 3145 3147 3149 3152 3154 3156 3159 3161 3163 3167 3170 3172 3174 3175 3177 3179 3181 3183 3185 3187 3189 3191 3193 3195 3197 3198 3200 3202 3204 3206 3208 3210 3212 3213 3214 3216 3217 3219 3222 3223 3225 3226 3227 3229 3230 3232 3233 3234 3236 3237 3238 3238
3120 3121 3121 3121 3123 3125 3128 3131 3134 3137 3140 3143 3144 3146 3149 3151 3153 3156 3158 3161 3164 3167 3170 3172 3174 3176 3177 3179 3181 3183 3185 3187 3189 3191 3193 3194 3196 3198 3200 3202 3204 3206 3208 3209 3211 3212 3214 3215 3217 3219 3221 3222 3224 3225 3226 3228 3230 3231 3232 3234 3235 3236 3237
3117 3120 3122 3122 3121 3121 3123 3129 3132 3134 3137 3140 3142 3145 3147 3149 3151 3153 3156 3158 3161 3165 3168 3170 3171 3173 3175 3177 3179 3181 3182 3184 3186 3188 3190 3192 3194 3196 3198 3200 3202 3204 3205 3207 3209 3210 3211 3213 3215 3217 3219 3220 3221 3223 3224 3226 3228 3229 3230 3232 3233 3234 3235
3115 3116 3119 3123 3122 3118 3120 3125 3128 3131 3135 3138 3140 3143 3145 3147 3149 3151 3153 3156 3159 3162 3165 3168 3169 3171 3173 3175 3177 3178 3180 3182 3184 3186 3188 3189 3191 3193 3196 3197 3199 3201 3203 3205 3206 3207 3209 3211 3213 3214 3216 3218 3219 3221 3222 3224 3225 3227 3229 3230 3231 3233 3233
3112 3113 3115 3120 3122 3119 3119 3122 3126 3129 3133 3136 3138 3141 3143 3144 3146 3148 3151 3154 3157 3159 3162 3165 3166 3168 3170 3172 3174 3176 3177 3180 3181 3183 3185 3187 3189 3191 3193 3195 3197 3199 3201 3203 3204 3205 3207 3209 3211 3212 3214 3216 3217 3218 3220 3221 3223 3225 3227 3228 3229 3230 3231
3108 3111 3113 3116 3120 3120 3118 3120 3124 3128 3132 3134 3136 3138 3141 3142 3144 3146 3148 3151 3153 3155 3158 3162 3164 3166 3168 3170 3171 3173 3175 3177 3179 3181 3183 3185 3187 3189 3191 3193 3194 3196 3198 3200 3202 3203 3204 3206 3208 3210 3212 3214 3215 3216 3218 3219 3221 3222 3225 3226 3227 3228 3229
3106 3111 3114 3117 3120 3121 3119 3119 3122 3126 3129 3131 3134 3136 3139 3141 3142 3144 3146 3148 3149 3152 3155 3159 3161 3163 3165 3167 3169 3171 3173 3175 3177 3179 3181 3183 3185 3187 3189 3190 3192 3194 3196 3198 3200 3201 3202 3204 3206 3208 3210 3211 3213 3214 3215 3217 3218 3220 3222 3224 3225 3226 3227
3104 3106 3109 3111 3114 3116 3117 3119 3120 3124 3127 3130 3132 3134 3137 3139 3140 3142 3143 3145 3147 3149 3152 3155 3158 3160 3162 3165 3167 3169 3171 3173 3175 3177 3179 3181 3183 3184 3186 3188 3190 3191 3193 3195 3197 3199 3200 3202 3203 3206 3208 3209 3210 3212 3213 3214 3215 3217 3219 3221 3223 3224 3225
3101 3101 3101 3103 3106 3109 3112 3116 3119 3123 3126 3128 3130 3132 3134 3136 3137 3139 3141 3143 3145 3147 3150 3152 3155 3158 3160 3162 3165 3167 3169 3171 3173 3175 3177 3178 3180 3182 3184 3186 3188 3189 3191 3192 3195 3197 3198 3200 3201 3203 3205 3206 3208 3209 3210 3211 3213 3215 3217 3219 3221 3222 3223
3101 3100 3100 3101 3104 3107 3109 3112 3115 3119 3121 3124 3127 3129 3131 3133 3135 3137 3139 3141 3143 3145 3148 3150 3152 3155 3157 3160 3162 3165 3167 3169 3171 3173 3174 3176 3178 3180 3182 3183 3185 3187 3188 3190 3192 3194 3196 3198 3198 3200 3202 3204 3205 3206 3208 3209 3210 3213 3215 3217 3218 3219 3220
3100 3100 3100 3101 3104 3106 3109 3111 3113 3114 3116 3119 3121 3124 3126 3129 3131 3134 3136 3138 3141 3143 3145 3147 3150 3152 3155 3158 3160 3162 3164 3166 3168 3170 3172 3174 3176 3178 3180 3181 3183 3185 3186 3187 3189 3191 3194 3195 3196 3197 3199 3201 3203 3204 3205 3207 3208 3210 3212 3214 3216 3217 3218
3099 3100 3100 3102 3104 3106 3108 3111 3112 3114 3115 3117 3119 3121 3125 3126 3128 3131 3134 3136 3138 3140 3143 3145 3147 3149 3152 3155 3157 3160 3162 3164 3166 3168 3170 3172 3174 3176 3177 3179 3180 3182 3183 3185 3187 3189 3191 3193 3194 3195 3197 3198 3200 3201 3203 3204 3206 3207 3209 3212 3214 3215 3216
3098 3100 3100 3102 3104 3106 3108 3109 3111 3113 3115 3116 3117 3120 3123 3124 3126 3129 3132 3134 3136 3138 3140 3142 3144 3147 3150 3152 3155 3157 3159 3162 3164 3166 3168 3170 3171 3173 3175 3176 3178 3179 3181 3183 3184 3185 3188 3190 3192 3193 3194 3196 3197 3199 3201 3202 3204 3205 3207 3209 3211 3212 3213
3097 3099 3100 3102 3104 3106 3107 3108 3109 3111 3112 3112 3114 3117 3119 3121 3124 3127 3130 3132 3134 3136 3138 3140 3142 3144 3147 3149 3151 3154 3157 3159 3161 3163 3165 3167 3169 3170 3172 3174 3175 3177 3178 3180 3181 3182 3185 3187 3189 3191 3192 3193 3194 3196 3198 3200 3201 3203 3204 3206 3209 3210 3211
3095 3097 3098 3101 3103 3104 3106 3107 3108 3109 3110 3110 3112 3114 3115 3118 3121 3124 3126 3128 3131 3133 3135 3138 3140 3141 3143 3146 3148 3151 3154 3156 3158 3160 3162 3164 3166 3168 3169 3171 3173 3174 3176 3177 3179 3180 3182 3184 3186 3188 3189 3191 3192 3193 3195 3197 3198 3200 3202 3204 3206 3207 3208
3093 3095 3097 3099 3101 3102 3104 3105 3106 3107 3108 3110 3111 3112 3113 3115 3119 3122 3123 3124 3127 3129 3131 3135 3137 3138 3140 3143 3145 3148 3150 3153 3155 3157 3159 3161 3163 3165 3166 3168 3170 3171 3173 3174 3176 3177 3178 3180 3183 3185 3186 3188 3190 3191 3192 3194 3195 3197 3199 3201 3203 3204 3205
3091 3093 3095 3096 3098 3100 3102 3103 3104 3105 3106 3108 3110 3111 3112 3113 3116 3119 3120 3122 3124 3126 3127 3130 3133 3134 3137 3140 3142 3145 3147 3149 3152 3154 3155 3157 3160 3162 3164 3165 3167 3168 3170 3171 3173 3174 3176 3178 3180 3182 3183 3185 3187 3188 3190 3192 3193 3195 3196 3198 3200 3201 3202
3089 3091 3092 3094 3095 3097 3099 3100 3101 3103 3104 3105 3107 3109 3110 3111 3112 3115 3117 3119 3121 3123 3124 3126 3129 3131 3134 3137 3139 3142 3144 3146 3148 3150 3152 3154 3157 3159 3161 3162 3164 3165 3167 3169 3170 3172 3173 3175 3177 3179 3180 3182 3184 3186 3188 3189 3190 3192 3193 3195 3196 3198 3199
3087 3089 3090 3092 3093 3094 3096 3097 3098 3099 3101 3102 3103 3105 3106 3107 3108 3111 3113 3116 3118 3119 3120 3123 3126 3128 3130 3133 3136 3138 3140 3143 3145 3147 3149 3151 3153 3156 3158 3160 3161 3162 3164 3166 3167 3169 3170 3172 3174 3176 3178 3179 3181 3182 3184 3186 3187 3189 3190 3192 3193 3195 3196
3084 3086 3088 3089 3090 3091 3092 3093 3095 3096 3097 3099 3100 3101 3103 3104 3105 3107 3110 3112 3113 3115 3118 3120 3122 3125 3127 3129 3132 3134 3137 3139 3141 3143 3145 3147 3150 3153 3155 3156 3158 3159 3161 3163 3165 3166 3167 3168 3170 3173 3174 3176 3177 3179 3181 3183 3184 3186 3187 3189 3190 3192 3193
3082 3083 3085 3086 3087 3088 3089 3090 3091 3092 3094 3095 3097 3098 3099 3100 3101 3103 3106 3108 3109 3113 3116 3117 3119 3121 3123 3125 3128 3130 3133 3136 3138 3140 3142 3144 3146 3149 3151 3153 3154 3156 3158 3160 3162 3163 3165 3166 3167 3169 3171 3173 3174 3175 3177 3179 3181 3182 3184 3185 3187 3189 3190
3078 3080 3082 3083 3083 3084 3085 3086 3087 3088 3090 3092 3093 3094 3095 3096 3097 3100 3102 3104 3107 3111 3112 3113 3115 3117 3119 3121 3123 3126 3129 3132 3134 3136 3138 3140 3143 3145 3148 3149 3151 3153 3155 3157 3159 3160 3162 3163 3164 3166 3168 3170 3171 3172 3174 3175 3177 3179 3181 3183 3184 3186 3187
3074 3076 3078 3079 3080 3080 3082 3082 3083 3085 3086 3088 3089 3090 3091 3092 3094 3096 3098 3101 3104 3107 3108 3109 3111 3113 3115 3117 3119 3122 3125 3128 3130 3132 3133 3136 3139 3142 3144 3146 3148 3150 3151 3154 3155 3157 3158 3160 3162 3163 3164 3166 3168 3169 3171 3172 3174 3176 3178 3180 3181 3182 3184
3070 3072 3074 3076 3076 3077 3078 3079 3079 3081 3082 3084 3085 3086 3087 3089 3091 3092 3094 3097 3100 3102 3103 3105 3107 3109 3111 3113 3115 3118 3121 3123 3125 3127 3129 3132 3135 3138 3141 3143 3144 3146 3148 3150 3152 3153 3155 3157 3159 3160 3162 3163 3165 3166 3168 3169 3171 3172 3175 3177 3178 3179 3181
3066 3067 3070 3072 3072 3073 3075 3075 3076 3077 3078 3079 3081 3081 3083 3086 3087 3088 3091 3093 3095 3096 3098 3100 3102 3105 3107 3109 3111 3113 3116 3118 3120 3122 3125 3128 3131 3134 3137 3139 3141 3143 3145 3147 3148 3150 3152 3154 3155 3157 3159 3161 3162 3164 3165 3167 3168 3169 3171 3174 3175 3176 3178
3063 3064 3066 3067 3069 3070 3071 3072 3072 3073 3074 3075 3077 3078 3079 3081 3083 3085 3087 3088 3090 3091 3093 3094 3097 3100 3102 3104 3106 3108 3110 3112 3115 3117 3120 3123 3126 3130 3133 3135 3137 3139 3141 3143 3145 3147 3148 3150 3152 3154 3156 3158 3159 3161 3162 3164 3165 3166 3168 3170 3172 3174 3175
3060 3061 3063 3064 3065 3066 3067 3068 3068 3069 3070 3071 3072 3073 3075 3077 3078 3080 3082 3084 3085 3086 3087 3089 3091 3094 3097 3099 3101 3103 3105 3107 3110 3112 3115 3118 3122 3125 3128 3130 3133 3135 3137 3139 3142 3144 3145 3147 3149 3151 3153 3155 3157 3158 3160 3161 3162 3163 3165 3167 3170 3171 3172
3058 3059 3060 3061 3062 3063 3063 3064 3064 3064 3065 3067 3067 3069 3071 3072 3073 3075 3077 3079 3080 3082 3082 3084 3086 3089 3091 3094 3096 3097 3099 3102 3105 3107 3110 3114 3118 3121 3123 3126 3129 3131 3134 3136 3138 3140 3142 3144 3146 3148 3150 3152 3154 3156 3157 3158 3160 3162 3163 3165 3167 3169 3170
3055 3057 3057 3059 3060 3060 3059 3059 3060 3060 3061 3062 3063 3064 3066 3068 3069 3070 3071 3073 3076 3078 3078 3079 3081 3083 3085 3087 3089 3092 3094 3097 3099 3102 3105 3109 3112 3116 3119 3122 3125 3128 3130 3132 3135 3137 3139 3141 3143 3145 3147 3149 3151 3153 3155 3156 3158 3160 3161 3161 3163 3165 3166
3053 3054 3055 3056 3057 3057 3055 3054 3054 3055 3055 3057 3058 3059 3061 3062 3063 3063 3064 3066 3070 3072 3073 3073 3075 3078 3080 3082 3085 3087 3090 3093 3094 3097 3101 3104 3108 3111 3115 3118 3121 3123 3126 3129 3131 3133 3135 3137 3139 3141 3143 3145 3147 3149 3151 3153 3155 3156 3157 3158 3159 3161 3162
3051 3052 3053 3053 3054 3054 3052 3050 3048 3049 3051 3053 3054 3055 3057 3058 3057 3058 3060 3063 3064 3066 3067 3068 3071 3074 3076 3079 3082 3084 3086 3089 3091 3093 3097 3100 3103 3107 3110 3113 3116 3119 3122 3125 3127 3129 3132 3134 3136 3137 3139 3141 3143 3145 3147 3149 3151 3152 3153 3154 3155 3157 3159